sat.trackr.live / text

‹ back to catalog

STARLINK-32367

NORAD 60919 · 2024-154S

PAYLOAD ACTIVE UNKNOWN

§ Identity

Operator
Country
US
Launch date
2024-08-31
Launch site
AFETR
Launch vehicle
Mass (kg)
RCS (m²)

Purposes: comms

External: N2YO · Heavens-Above · Gunter

§ Orbital elements

Epoch: 2026-05-25T03:13:29.678592Z

Period
94.11 min
Inclination
53.1597°
Eccentricity
0.0001187
Mean motion
15.30186930 rev/d
Perigee alt
474.4 km
Apogee alt
476.1 km
Semi-major
6,853.4 km
B*
1.2953e-5
RAAN
288.4350°
Arg perigee
99.4551°
Mean anomaly
260.6584°
Rev number
9,804

§ Raw data

STARLINK-323671 60919U 24154S   26145.13437128  .00000024  00000+0  12953-4 0  99972 60919  53.1597 288.4350 0001187  99.4551 260.6584 15.30186930 98045

JSON: /api/v1/satellites/60919 · /tle

For live sub-satellite position, see the globe view (requires WebGL).

§ Visibility from observer

Set your observer location to see the next 7 days of passes ≥ 10°. The values pass through the URL so the page stays shareable.

No JS? Fill the form by hand. The geolocation button needs JavaScript.